Погода в Кыбартаи

Поиск расширенной информации на нашем сайте:

Полезная информация:

Новости сайта



02.01.2020
Опубликован Долгосрочный прогноз погоды по городам России и ближнего зарубежья на январь 2020 года.
Карты: Прогноз на январь и февраль 2020 года, Сравнение прогнозируемой аномалии приземной температуры воздуха на январь 2020 года по разным моделям.




Погода в Кыбартаи - сегодня

Время (UTC), дата Ветер
(°,м/с) 
Видим.   Явления Облачность Т
(°С)
Тd
(°С)
f(%) Тe
(°С)
Pmin
(гПа)
dP
(гПа)
Po
(мм)
O2
(г/м3)
Тmin Tmax R s Состояние
почвы
21 22.10.20 240 (ЮЗ) 4-7{09}  20000 м    1/1 1000 м 
+12.7 +10.1 84 +13  1011.5  0.3  753  288           
00 23.10.20 240 (ЮЗ) 4-7{08}  20000 м    8/0 
+13.3 +10.9 85 +15  1010.3  -1.1  752  287           
03 23.10.20 220 (ЮЗ) 5-7{07}  19000 м    8/0 
+12.5 +10.6 88 +14  1008.5  -1.8  751  287           
06 23.10.20 240 (ЮЗ) 6-9{10}  19000 м    9/0 
+13.1 +10.5 84 +14  1008.4  -0.1  751  287  +11.9         
09 23.10.20 250 (З) 6-13{13}  20000 м    5/5 600 м 
+14.4 +9.9 74 +15  1009.1  0.7  752  286           
12 23.10.20 260 (З) 5-9{12}  20000 м    5/5 1500 м 
+13.9 +8.5 70 +13  1009.5  0.4  752  287           
15 23.10.20 260 (З) 4-7{11}  20000 м    3/0 
+12.7 +6.9 68 +12  1010  0.5  752  288           
18 23.10.20 230 (ЮЗ) 3-4{07}  20000 м    9/9 1000 м 
+9.7 +7.3 85 +9  1011  0.8  753  292    +15.3       
21 23.10.20 230 (ЮЗ) 3-4{04}  20000 м    9/0 
+10.1 +7.8 86 +10  1010.7  -0.3  753  291           
00 24.10.20 250 (З) 2-3{05}  20000 м    9/0 
+9.6 +7.9 89 +10  1010.1  -0.6  752  291           
03 24.10.20 270 (З) 2-4{04}  11000 м  слаб. дождь  10/10 1000 м 
+9.4 +8.5 94 +9  1009.6  -0.4  752  291      0.0     
06 24.10.20 120 (ЮВ) 1-2{04}  2000 м  слаб. ливневой дождь  9/0 
+9 +8.7 98 +10  1009.2  -0.4  752  292  +8.5       
09 24.10.20 260 (З) 3-5{05}  8000 м  дымка  9/9 1000 м 
+11.1 +10.4 95 +13  1010.2  1.1  752  289         
12 24.10.20 270 (З) 3-5{07}  20000 м    4/4 300 м 
+12.6 +9.5 81 +12  1010.5  0.3  753  288           
15 24.10.20 240 (ЮЗ) 3-5{08}  20000 м    9/9 600 м 
+12.1 +9 81 +12  1010.9  0.3  753  289           
18 24.10.20 240 (ЮЗ) 5-8{09}  20000 м    9/9 600 м 
+11.9 +9.5 85 +11  1011.7  0.8  753  289    +13.7       
21 24.10.20 240 (ЮЗ) 5-8{09}  20000 м    9/0 2000 м 
+11.2 +9.3 88 +10  1012.5  0.8  754  290           
00 25.10.20 240 (ЮЗ) 3-5{08}  15000 м    9/9 300 м 
+11 +9.7 92 +12  1013.5  0.9  755  291           
03 25.10.20 240 (ЮЗ) 3-5{06}  8000 м  дымка  8/8 300 м 
+9.3 +8.8 97 +9  1014.1  0.7  755  293           
06 25.10.20 200 (Ю) 3-4{06}  9000 м  дымка  ясно 
+8 +7.4 96 +7  1015.1  0.9  756  295  +7.6         
09 25.10.20 210 (ЮЗ) 4-6{06}  20000 м    4/4 1000 м 
+13.5 +9.5 77 +13  1015.2  0.3  756  289           
12 25.10.20 200 (Ю) 5-7{08}  20000 м    ясно 
+14.4 +9.7 73 +15  1014.6  -0.6  756  287           
15 25.10.20 160 (Ю) 2-3{08}  19000 м    ясно 
+12.7 +9.2 79 +13  1014.3  -0.3  755  289           
18 25.10.20 180 (Ю) 5-8{09}  15000 м    ясно 
+12 +9.7 86 +12  1014.1  -0.3  755  290    +15.1       
21 25.10.20 150 (ЮВ) 3-6{08}  9000 м  дымка  ясно 
+10 +8.8 92 +10  1014  0.1  755  292           
Время (UTC), дата Ветер
(°,м/с) 
Видим.   Явления Облачность Т
(°С)
Тd
(°С)
f(%) Тe
(°С)
Pmin
(гПа)
dP
(гПа)
Po
(мм)
O2
(г/м3)
Тmin Tmax R s Состояние
почвы

Для получения пояснительной информации подведите курсор к названию столбца.

ПОГОДА в Кыбартаи - архив

Всё, что Вы хотите узнать о погоде в Кыбартаи - удобно и подробно!

Выберите нужную дату (начиная с 1 января 2019* года) и нажмите кнопку "Найти".
Будут отображены архивные сводки погоды по пункту Кыбартаи, начиная с указанной даты.


Отображать данные в формате CSV (для использования в таблицах Excel)


Внимание! Наш архив погоды предназначен исключительно для личного некоммерческого использования в познавательных целях. Если Вам необходимы официальные справки о состоянии погоды (для производственных, юридических, коммерческих и т.п. целей), обращайтесь в органы Росгидромета.

*Примечание: данная дата относится к архиву по метеостанциям СССР (Россия, СНГ, Балтия).
Архив по метеостанциям Зарубежной Европы и Азии (кроме Китая) хранится 10 дней, по другим регионам земного шара (Китай, Африка, Америка, Австралия, Океания) - 1 день.

Кыбартаи - район местоположения метеостанции


Название, широта, долгота, высота метеостанции:
Кыбартаи 54.6°ш. 22.8°д. 59 м над ур. моря [Литва]

Дополнительная информация

В oтличие oт бoльшинства пoгoдных сайтoв мы публикуем пoдрoбную метеoинфoрмацию в детальнoм прoфессиoнальнoм фoрмате.

Характеристики температуры и влажнoсти вoздуха измеряются на высoте 2 м в тени вдали oт зданий и деревьев.
Скoрoсть ветра измеряется на высoте 10 м (на урoвне рoста челoвека скoрoсть ветра ниже в 1.5-2 раза). Если метеoстанция нахoдится в гoрoде или в лесу, тo скoрoсть ветра занижена на 2-4 м/с пo сравнению с oткрытым местoм. Скoрoсть ветра над акватoриями крупных рек и oзёр, а также на вершинах хoлмoв на 2-5 м/с выше, чем в oбычных услoвиях.
Атмoсфернoе давление в разных тoчках местнoсти мoжет значительнo oтличаться oт давления на метеoстанции, в зависимoсти oт услoвий рельефа (при пoдъёме на 10 м давление пoнижается примернo на 1 мм рт.ст.).